PPNLR SBVT-SBBH

Flight info

Callsign PPNLR
Flight time 0h 43m
Altitude 36000
Route OPLOX UZ34 NIPDA
Aircraft E35L/M-SABDFGRW/S

Departure

Time 2026-04-26 21:52
Airport Eurico de Aguiar Salles International Airport (SBVT)

Arrival

Time 2026-04-26 22:35
Airport Pampulha - Carlos Drummond de Andrade Airport (SBBH)
Time Latitude Longitude Altitude Speed Heading
2026-04-26 21:38 -20.26352 -40.28195 18 ft 0 kts 263°
2026-04-26 21:45 -20.26352 -40.28196 18 ft 0 kts 263°
2026-04-26 21:46 -20.26350 -40.28184 19 ft 2 kts 263°
2026-04-26 21:46 -20.26349 -40.28169 18 ft 2 kts 263°
2026-04-26 21:46 -20.26347 -40.28153 18 ft 1 kts 263°
2026-04-26 21:47 -20.26345 -40.28143 18 ft 2 kts 243°
2026-04-26 21:47 -20.26335 -40.28131 18 ft 2 kts 207°
2026-04-26 21:47 -20.26321 -40.28128 18 ft 1 kts 174°
2026-04-26 21:47 -20.26318 -40.28128 18 ft 0 kts 172°
2026-04-26 21:49 -20.26320 -40.28128 18 ft 1 kts 171°
2026-04-26 21:49 -20.26349 -40.28122 18 ft 6 kts 170°
2026-04-26 21:49 -20.26406 -40.28117 19 ft 10 kts 174°
2026-04-26 21:50 -20.26465 -40.28100 19 ft 7 kts 137°
2026-04-26 21:50 -20.26509 -40.28047 19 ft 11 kts 151°
2026-04-26 21:50 -20.26594 -40.28021 19 ft 13 kts 144°
2026-04-26 21:50 -20.26609 -40.27937 19 ft 10 kts 81°
2026-04-26 21:51 -20.26592 -40.27858 19 ft 9 kts 31°
2026-04-26 21:51 -20.26559 -40.27856 19 ft 0 kts 351°
2026-04-26 21:51 -20.26297 -40.27895 18 ft 90 kts 352°
2026-04-26 21:51 -20.25369 -40.28038 61 ft 169 kts 352°
2026-04-26 21:52 -20.24123 -40.28234 644 ft 193 kts
2026-04-26 21:52 -20.22930 -40.27748 1896 ft 192 kts 40°
2026-04-26 21:52 -20.21951 -40.26643 2709 ft 226 kts 48°
2026-04-26 21:52 -20.20624 -40.25544 3594 ft 265 kts 26°
2026-04-26 21:53 -20.18976 -40.24509 4620 ft 296 kts 33°
2026-04-26 21:53 -20.17012 -40.23763 5767 ft 311 kts
2026-04-26 21:53 -20.14843 -40.24065 6972 ft 321 kts 340°
2026-04-26 21:53 -20.12979 -40.25402 8210 ft 329 kts 313°
2026-04-26 21:54 -20.11846 -40.27477 9459 ft 333 kts 288°
2026-04-26 21:54 -20.11448 -40.29879 10744 ft 334 kts 282°
2026-04-26 21:54 -20.10974 -40.32262 12039 ft 334 kts 281°
2026-04-26 21:54 -20.10540 -40.34662 13325 ft 333 kts 281°
2026-04-26 21:55 -20.10023 -40.37040 14590 ft 332 kts 285°
2026-04-26 21:55 -20.09389 -40.39350 15812 ft 331 kts 288°
2026-04-26 21:55 -20.08568 -40.41602 16954 ft 329 kts 290°
2026-04-26 21:55 -20.07752 -40.43858 18050 ft 327 kts 290°
2026-04-26 21:56 -20.06945 -40.46085 19099 ft 323 kts 291°
2026-04-26 21:56 -20.06148 -40.48281 20076 ft 319 kts 291°
2026-04-26 21:56 -20.05360 -40.50451 21100 ft 315 kts 291°
2026-04-26 21:56 -20.04581 -40.52596 22076 ft 312 kts 291°
2026-04-26 21:57 -20.03805 -40.54734 23067 ft 309 kts 291°
2026-04-26 21:57 -20.03035 -40.56852 24044 ft 306 kts 291°
2026-04-26 21:57 -20.02273 -40.58949 24997 ft 304 kts 291°
2026-04-26 21:57 -20.01514 -40.61036 25922 ft 302 kts 291°
2026-04-26 21:58 -20.00762 -40.63102 26814 ft 301 kts 291°
2026-04-26 21:58 -20.00002 -40.65191 27693 ft 299 kts 291°
2026-04-26 21:58 -19.99261 -40.67227 28529 ft 298 kts 291°
2026-04-26 21:58 -19.98508 -40.69292 29344 ft 297 kts 291°
2026-04-26 21:59 -19.97770 -40.71318 30119 ft 296 kts 291°
2026-04-26 21:59 -19.97035 -40.73329 30869 ft 295 kts 291°
2026-04-26 21:59 -19.96289 -40.75373 31616 ft 294 kts 291°
2026-04-26 21:59 -19.95556 -40.77381 32328 ft 293 kts 291°
2026-04-26 22:00 -19.94817 -40.79404 33043 ft 292 kts 291°
2026-04-26 22:00 -19.94084 -40.81414 33800 ft 291 kts 291°
2026-04-26 22:00 -19.93345 -40.83435 34540 ft 290 kts 291°
2026-04-26 22:00 -19.92623 -40.85412 35207 ft 292 kts 291°
2026-04-26 22:01 -19.91870 -40.87470 35502 ft 305 kts 291°
2026-04-26 22:01 -19.91099 -40.89581 35888 ft 314 kts 291°
2026-04-26 22:01 -19.90287 -40.91799 36105 ft 330 kts 291°
2026-04-26 22:01 -19.89437 -40.94122 36109 ft 344 kts 291°
2026-04-26 22:02 -19.88543 -40.96562 36111 ft 357 kts 291°
2026-04-26 22:02 -19.87629 -40.99057 36116 ft 369 kts 291°
2026-04-26 22:02 -19.86694 -41.01611 36122 ft 381 kts 290°
2026-04-26 22:02 -19.85948 -41.04420 36120 ft 392 kts 280°
2026-04-26 22:03 -19.85654 -41.07313 36116 ft 403 kts 275°
2026-04-26 22:03 -19.85411 -41.10331 36099 ft 414 kts 276°
2026-04-26 22:03 -19.84854 -41.16526 36081 ft 422 kts 276°
2026-04-26 22:04 -19.84278 -41.22780 36065 ft 422 kts 276°
2026-04-26 22:04 -19.83707 -41.28980 36057 ft 422 kts 276°
2026-04-26 22:05 -19.83133 -41.35199 36053 ft 421 kts 276°
2026-04-26 22:05 -19.82553 -41.41456 36049 ft 421 kts 276°
2026-04-26 22:06 -19.81977 -41.47654 36049 ft 421 kts 276°
2026-04-26 22:06 -19.81398 -41.53855 36055 ft 421 kts 276°
2026-04-26 22:07 -19.80816 -41.60062 36065 ft 421 kts 276°
2026-04-26 22:07 -19.80232 -41.66263 36075 ft 420 kts 277°
2026-04-26 22:08 -19.79645 -41.72465 36084 ft 420 kts 277°
2026-04-26 22:08 -19.79056 -41.78671 36092 ft 420 kts 276°
2026-04-26 22:09 -19.78464 -41.84887 36104 ft 420 kts 276°
2026-04-26 22:09 -19.77873 -41.91081 36107 ft 420 kts 277°
2026-04-26 22:10 -19.77283 -41.97225 36115 ft 420 kts 277°
2026-04-26 22:10 -19.76685 -42.03433 36123 ft 420 kts 277°
2026-04-26 22:11 -19.76087 -42.09621 36112 ft 420 kts 277°
2026-04-26 22:11 -19.75480 -42.15785 36091 ft 421 kts 277°
2026-04-26 22:12 -19.75168 -42.18888 35523 ft 433 kts 277°
2026-04-26 22:12 -19.74844 -42.22115 34946 ft 444 kts 277°
2026-04-26 22:12 -19.74509 -42.25438 34365 ft 454 kts 277°
2026-04-26 22:12 -19.74171 -42.28795 33792 ft 463 kts 277°
2026-04-26 22:13 -19.73831 -42.32161 33219 ft 455 kts 277°
2026-04-26 22:13 -19.73501 -42.35425 32661 ft 438 kts 277°
2026-04-26 22:13 -19.73175 -42.38636 32137 ft 434 kts 277°
2026-04-26 22:13 -19.72848 -42.41855 31613 ft 429 kts 277°
2026-04-26 22:14 -19.72531 -42.44976 31099 ft 425 kts 277°
2026-04-26 22:14 -19.72210 -42.48118 30579 ft 422 kts 277°
2026-04-26 22:14 -19.71897 -42.51183 30072 ft 422 kts 277°
2026-04-26 22:14 -19.71581 -42.54283 29559 ft 415 kts 277°
2026-04-26 22:15 -19.71276 -42.57267 29046 ft 407 kts 277°
2026-04-26 22:15 -19.70972 -42.60239 28525 ft 400 kts 277°
2026-04-26 22:15 -19.70671 -42.63166 27997 ft 394 kts 277°
2026-04-26 22:15 -19.70377 -42.66034 27474 ft 388 kts 277°
2026-04-26 22:16 -19.70085 -42.68870 26955 ft 383 kts 277°
2026-04-26 22:16 -19.69799 -42.71652 26442 ft 378 kts 277°
2026-04-26 22:16 -19.69513 -42.74430 25922 ft 374 kts 277°
2026-04-26 22:16 -19.69235 -42.77125 25413 ft 370 kts 277°
2026-04-26 22:17 -19.68953 -42.79858 24894 ft 367 kts 277°
2026-04-26 22:17 -19.68675 -42.82542 24383 ft 364 kts 277°
2026-04-26 22:17 -19.68400 -42.85196 23874 ft 361 kts 277°
2026-04-26 22:17 -19.68125 -42.87851 23367 ft 358 kts 277°
2026-04-26 22:18 -19.67852 -42.90469 22871 ft 355 kts 277°
2026-04-26 22:18 -19.67586 -42.93033 22383 ft 353 kts 277°
2026-04-26 22:18 -19.67316 -42.95618 21913 ft 350 kts 277°
2026-04-26 22:18 -19.67053 -42.98143 21475 ft 345 kts 277°
2026-04-26 22:19 -19.66789 -43.00664 20899 ft 342 kts 277°
2026-04-26 22:19 -19.66528 -43.03159 20299 ft 339 kts 277°
2026-04-26 22:19 -19.66270 -43.05623 19701 ft 337 kts 277°
2026-04-26 22:19 -19.66011 -43.08087 19096 ft 335 kts 277°
2026-04-26 22:20 -19.65876 -43.10519 18475 ft 331 kts 265°
2026-04-26 22:20 -19.66559 -43.12772 17861 ft 315 kts 239°
2026-04-26 22:20 -19.67844 -43.14576 17271 ft 301 kts 233°
2026-04-26 22:20 -19.69125 -43.16287 16659 ft 291 kts 233°
2026-04-26 22:21 -19.70366 -43.17936 16053 ft 283 kts 232°
2026-04-26 22:21 -19.71592 -43.19561 15439 ft 277 kts 232°
2026-04-26 22:21 -19.72785 -43.21141 14963 ft 277 kts 232°
2026-04-26 22:21 -19.74015 -43.22769 14494 ft 280 kts 231°
2026-04-26 22:22 -19.75240 -43.24392 14029 ft 283 kts 231°
2026-04-26 22:22 -19.76480 -43.26034 13563 ft 285 kts 231°
2026-04-26 22:22 -19.77742 -43.27705 13088 ft 287 kts 231°
2026-04-26 22:22 -19.78978 -43.29342 12629 ft 288 kts 231°
2026-04-26 22:23 -19.80174 -43.31053 12159 ft 290 kts 241°
2026-04-26 22:23 -19.80819 -43.33066 11716 ft 289 kts 262°
2026-04-26 22:23 -19.80810 -43.35189 11321 ft 286 kts 271°
2026-04-26 22:23 -19.81224 -43.37218 10962 ft 283 kts 243°
2026-04-26 22:24 -19.82479 -43.38821 10661 ft 278 kts 225°
2026-04-26 22:24 -19.83477 -43.40531 10381 ft 272 kts 251°
2026-04-26 22:24 -19.84323 -43.42292 10130 ft 266 kts 227°
2026-04-26 22:24 -19.85796 -43.43394 9923 ft 259 kts 207°
2026-04-26 22:25 -19.87361 -43.44360 9687 ft 256 kts 212°
2026-04-26 22:25 -19.88855 -43.45397 9452 ft 254 kts 213°
2026-04-26 22:25 -19.90324 -43.46457 9217 ft 251 kts 214°
2026-04-26 22:25 -19.91757 -43.47504 8981 ft 249 kts 214°
2026-04-26 22:26 -19.93103 -43.48644 8740 ft 246 kts 232°
2026-04-26 22:26 -19.93761 -43.50256 8616 ft 227 kts 262°
2026-04-26 22:26 -19.93929 -43.51815 8429 ft 199 kts 264°
2026-04-26 22:26 -19.94077 -43.53217 8228 ft 193 kts 264°
2026-04-26 22:27 -19.94226 -43.54653 8056 ft 199 kts 263°
2026-04-26 22:27 -19.94381 -43.56151 7831 ft 203 kts 263°
2026-04-26 22:27 -19.94532 -43.57631 7589 ft 205 kts 263°
2026-04-26 22:27 -19.94689 -43.59158 7345 ft 212 kts 263°
2026-04-26 22:28 -19.94852 -43.60756 7106 ft 218 kts 263°
2026-04-26 22:28 -19.95015 -43.62350 6840 ft 219 kts 263°
2026-04-26 22:28 -19.95181 -43.63974 6562 ft 215 kts 263°
2026-04-26 22:28 -19.95336 -43.65508 6280 ft 205 kts 265°
2026-04-26 22:29 -19.95104 -43.66976 6005 ft 199 kts 291°
2026-04-26 22:29 -19.94617 -43.68325 5758 ft 195 kts 290°
2026-04-26 22:29 -19.94139 -43.69671 5601 ft 196 kts 291°
2026-04-26 22:29 -19.93657 -43.71027 5642 ft 195 kts 291°
2026-04-26 22:30 -19.93181 -43.72361 5646 ft 195 kts 291°
2026-04-26 22:30 -19.92696 -43.73719 5646 ft 195 kts 291°
2026-04-26 22:30 -19.92216 -43.75064 5647 ft 196 kts 291°
2026-04-26 22:30 -19.91729 -43.76427 5646 ft 196 kts 291°
2026-04-26 22:31 -19.91248 -43.77774 5645 ft 196 kts 291°
2026-04-26 22:31 -19.90766 -43.79123 5644 ft 196 kts 291°
2026-04-26 22:31 -19.90282 -43.80475 5646 ft 196 kts 291°
2026-04-26 22:31 -19.89803 -43.81815 5290 ft 191 kts 291°
2026-04-26 22:32 -19.89316 -43.83086 4918 ft 180 kts 292°
2026-04-26 22:32 -19.88885 -43.84336 4421 ft 179 kts 290°
2026-04-26 22:32 -19.88487 -43.85545 4148 ft 165 kts 290°
2026-04-26 22:32 -19.88081 -43.86683 4088 ft 164 kts 291°
2026-04-26 22:33 -19.87674 -43.87812 4037 ft 162 kts 291°
2026-04-26 22:33 -19.86914 -43.89909 3510 ft 146 kts 291°
2026-04-26 22:33 -19.86565 -43.90879 3266 ft 135 kts 290°
2026-04-26 22:34 -19.86244 -43.91813 3047 ft 136 kts 291°
2026-04-26 22:34 -19.85898 -43.92753 2878 ft 134 kts 290°
2026-04-26 22:34 -19.85575 -43.93659 2690 ft 129 kts 292°
2026-04-26 22:34 -19.85267 -43.94502 2618 ft 112 kts 290°
2026-04-26 22:35 -19.85029 -43.95162 2614 ft 78 kts 291°
2026-04-26 22:35 -19.84931 -43.95363 2605 ft 14 kts 358°
2026-04-26 22:35 -19.84900 -43.95276 2605 ft 14 kts 103°
2026-04-26 22:35 -19.84922 -43.95160 2605 ft 17 kts 81°
2026-04-26 22:36 -19.84892 -43.95094 2605 ft 5 kts 62°
2026-04-26 22:36 -19.84854 -43.95063 2605 ft 7 kts 20°
2026-04-26 22:36 -19.84845 -43.95060 2605 ft 0 kts 20°